Location: Melita
(38.4566°N, 122.6369°W)
Time: 21:53:34
(UTC+00:00)

COSMO-SKYMED 1 - Pass Details

Date: 24 January 2020
Orbit: 621 x 623 km, 97.9° (Epoch: 18 February)

Event Time Altitude Azimuth Distance (km) Brightness Sun altitude
Rises 14:29:22 0° 205° (SSW) 2,888 5.9 -10.5°
Reaches altitude 10° 14:32:13 10° 226° (SW) 1,987 4.9 -10.0°
Maximum altitude 14:35:03 17° 267° (W) 1,579 4.1 -9.5°
Drops below altitude 10° 14:37:54 10° 308° (NW) 1,997 4.6 -8.9°
Enters shadow 14:38:06 - 310° (NW) 2,048 4.6 -8.9°
